Newton, KS

7:07 AM CST on December 08, 2019 (GMT -0600)
Newton City County

Weather History for KEWK - November, 2019

Change the Weather History Date:

Thursday, November 14, 2019

  Actual Average Record
Temperature  
Mean Temperature 41 °F -  
Max Temperature 50 °F 53 °F 69 °F (1999)
Min Temperature 32 °F 35 °F 15 °F (2014)
Degree Days  
Heating Degree Days 24    
Moisture  
Dew Point 26 °F    
Average Humidity 60    
Maximum Humidity 85    
Minimum Humidity 39    
Precipitation  
Precipitation 0.00 in - - ()
Sea Level Pressure  
Sea Level Pressure 30.35 in    
Wind  
Wind Speed 8 mph (NNW)    
Max Wind Speed 15 mph    
Max Gust Speed 20 mph    
Visibility 10 miles    
Events      
Averages and records for this station are not official NWS values.
T = Trace of Precipitation, MM = Missing Value Source: NWS Daily Summary

Daily Weather History Graph

Daily Weather History Graph

Search for Another Location

Airport or City:

Astronomy

Nov. 14, 2019 Rise Set
Actual Time 7:08 AM CST 5:17 PM CST
Civil Twilight 6:40 AM CST 5:46 PM CST
Nautical Twilight 6:08 AM CST 6:17 PM CST
Astronomical Twilight 5:37 AM CST 6:48 PM CST
Moon 7:06 PM CST (11/14) 9:04 AM CST (11/14)
Length of Visible Light 11h 05m
Length of Day
10h 09m
Waning Gibbous, 95% of the Moon is Illuminated
Nov 14
Waning Gibbous
Nov 19
Last Quarter
Nov 26
New
Dec 4
First Quarter
Dec 11
Full

Hourly Weather History & Observations

Time (CST) Temp. Windchill Dew Point Humidity Pressure Visibility Wind Dir Wind Speed Gust Speed Precip Events Conditions
12:56 AM 32.0 °F 24.8 °F 19.9 °F 61% 30.22 in 10.0 mi NW 8.1 mph - N/A   Overcast
1:56 AM 35.1 °F 29.3 °F 21.0 °F 57% 30.23 in 10.0 mi NNW 6.9 mph - N/A   Overcast
2:56 AM 33.1 °F 28.7 °F 21.9 °F 64% 30.24 in 10.0 mi NW 4.6 mph - N/A   Scattered Clouds
3:56 AM 33.1 °F 26.1 °F 23.0 °F 66% 30.26 in 10.0 mi NW 8.1 mph - N/A   Overcast
4:56 AM 37.0 °F 29.8 °F 28.9 °F 73% 30.28 in 10.0 mi NNW 10.4 mph - N/A   Overcast
5:56 AM 34.0 °F 26.6 °F 28.0 °F 79% 30.31 in 10.0 mi NNW 9.2 mph - N/A   Mostly Cloudy
6:56 AM 32.0 °F 25.6 °F 28.0 °F 85% 30.34 in 10.0 mi North 6.9 mph - N/A   Clear
7:56 AM 33.1 °F 26.9 °F 28.0 °F 82% 30.37 in 10.0 mi NNW 6.9 mph - N/A   Clear
8:56 AM 39.0 °F 31.0 °F 30.9 °F 73% 30.38 in 10.0 mi North 13.8 mph - N/A   Clear
9:56 AM 42.1 °F 34.5 °F 30.0 °F 62% 30.40 in 10.0 mi North 15.0 mph - N/A   Clear
10:56 AM 44.1 °F 37.1 °F 28.9 °F 55% 30.41 in 10.0 mi North 15.0 mph - N/A   Clear
11:56 AM 46.0 °F 39.6 °F 28.0 °F 50% 30.40 in 10.0 mi North 15.0 mph - N/A   Clear
12:56 PM 46.9 °F - 27.0 °F 46% 30.38 in 10.0 mi NNW 11.5 mph - N/A   Clear
1:56 PM 48.9 °F - 25.0 °F 39% 30.36 in 10.0 mi NNW 8.1 mph - N/A   Clear
2:56 PM 50.0 °F - 26.1 °F 39% 30.35 in 10.0 mi NNW 11.5 mph 19.6 mph N/A   Clear
3:56 PM 48.9 °F - 27.0 °F 43% 30.36 in 10.0 mi NW 10.4 mph - N/A   Clear
4:56 PM 45.0 °F 42.6 °F 26.1 °F 48% 30.36 in 10.0 mi North 4.6 mph - N/A   Clear
5:56 PM 39.9 °F 37.8 °F 25.0 °F 55% 30.38 in 6.0 mi NNW 3.5 mph - N/A   Haze
6:56 PM 42.1 °F - 26.1 °F 53% 30.40 in 10.0 mi Calm Calm - N/A   Clear
7:56 PM 41.0 °F 39.0 °F 26.1 °F 55% 30.40 in 10.0 mi East 3.5 mph - N/A   Clear
8:56 PM 39.9 °F 37.8 °F 26.1 °F 58% 30.41 in 10.0 mi East 3.5 mph - N/A   Clear
9:56 PM 35.1 °F 30.1 °F 24.1 °F 64% 30.42 in 10.0 mi South 5.8 mph - N/A   Clear
10:56 PM 33.1 °F 26.9 °F 24.1 °F 70% 30.42 in 10.0 mi South 6.9 mph - N/A   Clear
11:56 PM 32.0 °F 25.6 °F 24.1 °F 73% 30.42 in 10.0 mi SSW 6.9 mph - N/A   Clear